sat.trackr.live / text

‹ back to catalog

CSG-1

NORAD 44873 · 2019-092A

PAYLOAD ACTIVE UNKNOWN

§ Identity

Operator
Country
IT
Launch date
2019-12-18
Launch site
FRGUI
Launch vehicle
Mass (kg)
RCS (m²)

Purposes: earth_obs

External: N2YO · Heavens-Above · Gunter

§ Orbital elements

Epoch: 2026-09-20T04:10:10.824960Z

Period
97.16 min
Inclination
97.8916°
Eccentricity
0.0001440
Mean motion
14.82146296 rev/d
Perigee alt
621.5 km
Apogee alt
623.6 km
Semi-major
7,000.7 km
B*
3.6025e-5
RAAN
85.4265°
Arg perigee
86.6866°
Mean anomaly
273.4512°
Rev number
36,554

§ Raw data

CSG-11 44873U 19092A   26263.17373640  .00000234  00000+0  36025-4 0  99952 44873  97.8916  85.4265 0001440  86.6866 273.4512 14.82146296365547

JSON: /api/v1/satellites/44873 · /tle

For live sub-satellite position, see the globe view (requires WebGL).

§ Visibility from observer

Set your observer location to see the next 7 days of passes ≥ 10°. The values pass through the URL so the page stays shareable.

No JS? Fill the form by hand. The geolocation button needs JavaScript.